FW1657 Weather Reports


Display with metric or nautical units.
time (UTC)temp
F
wind
direction
speed
MPH
gust
MPH
rain 1hr
in
rain 24hr
in
rain mn
in
humidity
%
barometer
mb
20260904201512 69 132 18.0 33.0 0.00 0.00 0.00 80 1017.1
20260904200035 70 133 12.0 20.0 0.00 0.00 0.00 75 1016.4
20260904194511 70 122 11.0 23.0 0.00 0.00 0.00 74 1016.2
20260904193012 70 119 12.0 22.0 0.00 0.00 0.00 73 1015.9
20260904191517 70 83 11.0 18.0 0.00 0.00 0.00 74 1015.8
20260904190011 70 134 11.0 18.0 0.00 0.00 0.00 73 1015.5
20260904184510 71 171 9.0 15.0 0.00 0.00 0.00 72 1015.4
20260904183009 72 115 11.0 19.0 0.00 0.00 0.00 70 1015.1
20260904181509 72 123 8.0 18.0 0.00 0.00 0.00 69 1015.1
20260904180007 73 112 9.0 18.0 0.00 0.00 0.00 68 1015.1
20260904174510 74 124 11.0 19.0 0.00 0.00 0.00 67 1015.0
20260904173011 75 131 9.0 14.0 0.00 0.00 0.00 66 1014.9
20260904171503 76 165 11.0 20.0 0.00 0.00 0.00 65 1015.0
20260904170003 77 117 10.0 18.0 0.00 0.00 0.00 64 1014.9
20260904164504 78 128 11.0 20.0 0.00 0.00 0.00 62 1014.9
20260904163003 79 98 12.0 18.0 0.00 0.00 0.00 60 1014.6
20260904161504 79 119 14.0 22.0 0.00 0.00 0.00 58 1014.4
20260904160001 79 104 12.0 24.0 0.00 0.00 0.00 58 1014.4
20260904154500 79 136 16.0 26.0 0.00 0.00 0.00 58 1014.5
20260904153128 79 122 13.0 23.0 0.00 0.00 0.00 58 1014.8
20260904151606 80 91 16.0 23.0 0.00 0.00 0.00 58 1014.7
20260904150058 80 97 13.0 28.0 0.00 0.00 0.00 59 1014.7
20260904144558 80 118 16.0 28.0 0.00 0.00 0.00 58 1014.7
20260904143101 79 97 16.0 28.0 0.00 0.00 0.00 59 1014.6
20260904141556 80 131 13.0 27.0 0.00 0.00 0.00 58 1014.6
20260904140055 79 83 13.0 22.0 0.00 0.00 0.00 61 1014.6
20260904134557 79 86 11.0 27.0 0.00 0.00 0.00 60 1014.7
20260904133056 79 90 13.0 30.0 0.00 0.00 0.00 59 1014.6
20260904131552 80 86 17.0 28.0 0.00 0.00 0.00 58 1014.7
20260904130051 79 67 19.0 29.0 0.00 0.00 0.00 58 1014.9
20260904124549 79 101 14.0 25.0 0.00 0.00 0.00 60 1015.0
20260904123047 79 118 14.0 25.0 0.00 0.00 0.00 60 1015.3
20260904121547 79 142 13.0 25.0 0.00 0.00 0.00 59 1015.3
20260904120058 79 92 16.0 29.0 0.00 0.00 0.00 59 1015.3
20260904114543 79 81 15.0 28.0 0.00 0.00 0.00 60 1015.2
20260904113044 78 100 14.0 25.0 0.00 0.00 0.00 60 1015.5
20260904111539 78 110 19.0 28.0 0.00 0.00 0.00 60 1015.4
20260904110038 78 94 16.0 25.0 0.00 0.00 0.00 60 1015.5
20260904104535 77 104 14.0 27.0 0.00 0.00 0.00 62 1015.7
20260904103032 77 97 15.0 28.0 0.00 0.00 0.00 63 1015.7
20260904101528 76 81 15.0 32.0 0.00 0.00 0.00 64 1015.8
20260904100028 75 84 12.0 29.0 0.00 0.00 0.00 67 1016.0
20260904094521 75 104 19.0 30.0 0.00 0.00 0.00 66 1016.1
20260904093044 74 83 19.0 27.0 0.00 0.00 0.00 71 1016.1
20260904091512 72 83 15.0 32.0 0.00 0.00 0.00 74 1016.3
20260904090008 71 67 16.0 33.0 0.00 0.00 0.00 76 1016.4
20260904084508 71 24 14.0 21.0 0.00 0.00 0.00 78 1016.7
20260904083005 71 50 10.0 23.0 0.00 0.00 0.00 78 1016.6
20260904081505 70 6 11.0 21.0 0.00 0.00 0.00 79 1016.8
20260904080058 69 55 10.0 15.0 0.00 0.00 0.00 81 1016.8
20260904074554 68 87 9.0 16.0 0.00 0.00 0.00 82 1017.1
20260904073152 68 67 9.0 21.0 0.00 0.00 0.00 83 1017.0
20260904071552 67 43 11.0 18.0 0.00 0.00 0.00 84 1017.1
20260904070046 66 77 10.0 15.0 0.00 0.00 0.00 85 1017.2
20260904064542 65 39 7.0 12.0 0.00 0.00 0.00 86 1017.2
20260904063045 64 73 7.0 13.0 0.00 0.00 0.00 88 1017.4
20260904061539 63 74 4.0 10.0 0.00 0.00 0.00 89 1017.4
20260904060038 63 61 6.0 11.0 0.00 0.00 0.00 89 1017.6
20260904054537 62 40 7.0 11.0 0.00 0.00 0.00 89 1017.6
20260904053034 62 43 6.0 10.0 0.00 0.00 0.00 89 1017.7
20260904051533 62 32 7.0 10.0 0.00 0.00 0.00 89 1017.6
20260904050030 62 42 5.0 8.0 0.00 0.00 0.00 89 1017.7
20260904044528 62 57 5.0 10.0 0.00 0.00 0.00 88 1017.6
20260904043027 63 71 5.0 9.0 0.00 0.00 0.00 88 1017.7
20260904041526 63 48 7.0 12.0 0.00 0.00 0.00 88 1017.6
20260904040024 63 49 7.0 10.0 0.00 0.00 0.00 87 1017.7
20260904034526 64 45 7.0 11.0 0.00 0.00 0.00 87 1017.9
20260904033032 64 43 5.0 11.0 0.00 0.00 0.00 87 1018.1
20260904031519 64 25 6.0 10.0 0.00 0.00 0.00 87 1018.0
20260904030017 65 40 5.0 8.0 0.00 0.00 0.00 86 1018.2
20260904024517 65 22 7.0 10.0 0.00 0.00 0.00 87 1018.4
20260904023013 65 34 6.0 11.0 0.00 0.00 0.00 88 1018.7
20260904021512 65 35 7.0 10.0 0.00 0.00 0.00 88 1018.7
20260904020008 64 33 6.0 9.0 0.00 0.00 0.00 88 1019.0
20260904014506 64 49 5.0 9.0 0.00 0.00 0.00 88 1019.1
20260904013014 64 70 6.0 8.0 0.00 0.00 0.00 89 1019.2
20260904011502 64 47 4.0 6.0 0.00 0.00 0.00 89 1019.5
20260904010002 64 36 4.0 9.0 0.00 0.00 0.00 88 1019.4
20260904004602 64 56 4.0 9.0 0.00 0.00 0.00 88 1019.7
20260904003111 64 28 3.0 9.0 0.00 0.00 0.00 88 1019.9
20260904001558 64 44 4.0 7.0 0.00 0.00 0.00 88 1019.9
20260904000055 64 46 3.0 6.0 0.00 0.00 0.00 89 1020.1
20260903234554 64 85 4.0 8.0 0.00 0.00 0.00 90 1020.1
20260903233053 63 35 4.0 7.0 0.00 0.00 0.00 90 1020.3
20260903231552 63 50 3.0 4.0 0.00 0.00 0.00 89 1020.2
20260903224549 64 54 2.0 3.0 0.00 0.00 0.00 89 1020.5
20260903223046 64 54 2.0 4.0 0.00 0.00 0.00 89 1020.7
20260903221546 64 54 2.0 4.0 0.00 0.00 0.00 89 1020.6
20260903220044 64 49 2.0 5.0 0.00 0.00 0.00 88 1020.7
20260903214545 64 60 2.0 4.0 0.00 0.00 0.00 87 1020.8
20260903213049 65 71 2.0 4.0 0.00 0.00 0.00 86 1020.9
20260903211541 66 92 3.0 6.0 0.00 0.00 0.00 86 1020.9
20260903210040 66 93 3.0 6.0 0.00 0.00 0.00 85 1021.2
20260903204539 66 100 3.0 7.0 0.00 0.00 0.00 85 1021.4
20260903203040 67 103 2.0 7.0 0.00 0.00 0.00 85 1021.3